Regional Weather Roundup
Issued by NWS

Home | Current Version | Previous Version | Graphics & Text | Print | Product List | Glossary On
Versions: 1 2 3 4 5 6 7 8 9 10 11 12 13 14 15 16 17 18 19 20 21 22 23 24 25 26 27 28 29 30 31 32 33 34 35 36 37 38 39 40 41 42 43 44 45 46 47 48 49 50
000
ASUS45 KCYS 311110
RWRWY

WYOMING REGIONAL WEATHER ROUNDUP
NATIONAL WEATHER SERVICE CHEYENNE WY
500 AM MDT FRI JUL 31 2015

NOTE:  "FAIR" INDICATES FEW OR NO CLOUDS BELOW 12,000 FEET
WITH NO SIGNIFICANT WEATHER AND/OR OBSTRUCTIONS TO VISIBILITY.

WYZ001-311200-
YELLOWSTONE NATIONAL PARK

CITY           SKY/WX    TMP DP  RH WIND       PRES   REMARKS
LK YELLOWSTONE   N/A     37  33  85 CALM      30.53F
W YELLOWSTONE  NOT AVBL

$$
WYZ002>013-054>058-071-098>099-311200-
NORTHERN WYOMING

CITY           SKY/WX    TMP DP  RH WIND       PRES   REMARKS
JACKSON        FAIR      45  36  70 NE7       30.44S
CODY           FAIR      61  36  39 SW5       30.31S
GREYBULL       FAIR      59  38  45 SE3       30.24S
WORLAND        FAIR      50  27  40 CALM      30.25S
SHERIDAN       FAIR      51  43  74 CALM      30.25S
BUFFALO        FAIR      62  35  36 W9        30.31F
GILLETTE       FAIR      62  42  47 SE9       30.27S
HULETT         FAIR      55  41  58 S7        30.28F
NEWCASTLE      FAIR      61  41  48 CALM      30.28F

$$
WYZ014>020-022>026-101>103-311200-
CENTRAL WYOMING

CITY           SKY/WX    TMP DP  RH WIND       PRES   REMARKS
BIG PINEY      FAIR      43  29  57 CALM      30.45S
PINEDALE       FAIR      37  32  81 NW3       30.45S
DUBOIS         FAIR      45  30  57 NW12      30.47S
LANDER         FAIR      64  25  22 SW14      30.34R
RIVERTON       FAIR      54  33  45 N6        30.34S
CASPER         FAIR      49  36  61 CALM      30.34R
DOUGLAS        FAIR      54  41  61 CALM      30.31F

$$
WYZ021-027>030-104>119-311200-
SOUTHERN WYOMING

CITY           SKY/WX    TMP DP  RH WIND       PRES   REMARKS
EVANSTON       FAIR      53  24  32 SE8       30.44S
KEMMERER       FAIR      50  28  43 NW3       30.45S
FORT BRIDGER   SUNNY     59  25  27 W7        30.45S
ROCK SPRINGS   FAIR      58  19  22 E3        30.41R
DIXON          FAIR      51  28  41 E3        30.41S
RAWLINS        FAIR      45  33  63 N3        30.42S
SARATOGA       FAIR      46  32  57 S3        30.44S
LARAMIE        FAIR      53  44  71 N6        30.45S
CHEYENNE       FAIR      55  50  83 W9        30.37F
TORRINGTON     FAIR      58  52  80 NW3       30.26S
PINE BLUFFS    FAIR      52  50  93 W5        30.33S

$$



USA.gov is the U.S. government's official web portal to all federal, state and local government web resources and services.